Location: Julian California
(33.0790°N, 116.6010°W)
Time: 05:40:59
(UTC-07:00)

Cosmos 2369 Rocket - Pass Details

Date: 19 May 2017
Orbit: 827 x 854 km, 71.0° (Epoch: 22 July)

Event Time Altitude Azimuth Distance (km) Brightness Sun altitude
Rises 21:22:50 0° 333° (NNW) 3,393 6.6 -18.6°
Reaches altitude 10° 21:25:20 10° 329° (NNW) 2,459 5.7 -19.0°
Maximum altitude 21:30:47 53° 254° (WSW) 1,032 2.8 -19.8°
Enters shadow 21:34:21 21° 186° (S) 1,787 3.6 -20.4°
